This is the latest recevied weather packets stored in our database for station/object KD8DLP-13. If no packets are shown the sender has not sent any weather packets the latest 10 day(s).
| Time | Temp. | Humidity | Pressure | Rain* | Wind** | Luminosity | Snow |
|---|---|---|---|---|---|---|---|
| 1777352630 | 16.11° C | 99% | 1003.9 hPa | 0 mm | - | 0 W/m² | - |
| 1777352327 | 16.11° C | 99% | 1003.8 hPa | 0 mm | - | 0 W/m² | - |
| 1777352024 | 16.11° C | 98% | 1004.1 hPa | 0 mm | - | 0 W/m² | - |
| 1777351721 | 16.11° C | 98% | 1003.9 hPa | 0 mm | - | 0 W/m² | - |
| 1777351419 | 16.11° C | 98% | 1004 hPa | 0 mm | - | 0 W/m² | - |
| 1777351118 | 16.11° C | 98% | 1004.1 hPa | 0 mm | - | 0 W/m² | - |
| 1777350816 | 16.11° C | 98% | 1003.9 hPa | 0 mm | - | 0 W/m² | - |
| 1777350511 | 16.11° C | 98% | 1003.3 hPa | 0 mm | - | 0 W/m² | - |
| 1777350209 | 16.11° C | 98% | 1003.3 hPa | 0 mm | - | 0 W/m² | - |
| 1777349906 | 16.11° C | 98% | 1003.2 hPa | 0 mm | - | 0 W/m² | - |
| 1777349603 | 16.11° C | 98% | 1002.8 hPa | 0 mm | - | 0 W/m² | - |
| 1777349301 | 16.11° C | 98% | 1002.7 hPa | 0 mm | - | 0 W/m² | - |
| 1777348999 | 16.11° C | 98% | 1002.5 hPa | 0 mm | - | 0 W/m² | - |
| 1777348695 | 16.11° C | 98% | 1002.6 hPa | 0 mm | - | 0 W/m² | - |
| 1777348393 | 16.11° C | 98% | 1001.9 hPa | 0 mm | - | 0 W/m² | - |
| 1777348091 | 16.11° C | 98% | 1002 hPa | 0 mm | - | 0 W/m² | - |
| 1777347789 | 16.11° C | 98% | 1001.7 hPa | 0 mm | - | 0 W/m² | - |
| 1777347486 | 16.11° C | 98% | 1001.8 hPa | 1.27 mm | - | 0 W/m² | - |
| 1777347186 | 16.11° C | 98% | 1001.3 hPa | 1.27 mm | - | 0 W/m² | - |
| 1777346883 | 16.11° C | 98% | 1002.2 hPa | 0 mm | - | 0 W/m² | - |
| 1777346579 | 16.11° C | 98% | 1004.4 hPa | 1.78 mm | - | 0 W/m² | - |
| 1777346276 | 16.11° C | 97% | 1005.1 hPa | 3.05 mm | - | 0 W/m² | - |
| 1777345974 | 16.11° C | 97% | 1005.8 hPa | 3.05 mm | - | 0 W/m² | - |
| 1777345671 | 16.11° C | 97% | 1006.1 hPa | 4.83 mm | - | 0 W/m² | - |
| 1777345366 | 16.11° C | 97% | 1006.3 hPa | 6.1 mm | - | 0 W/m² | - |
* Rain latest hour (hover to see other rain measurements)
** Current wind speed in m/s (hover to see current wind gust speed)